Worthington, MN

4:46 AM CDT on April 29, 2017 (GMT -0500)
Worthington Municipal

Weather History for KOTG - July, 2013

Change the Weather History Date:

Saturday, July 13, 2013

  Actual Average Record
Temperature  
Mean Temperature 76 °F -  
Max Temperature 82 °F 78 °F 95 °F (1974)
Min Temperature 71 °F 60 °F 46 °F (1990)
Cooling Degree Days 12    
Growing Degree Days 26 (Base 50)    
Moisture  
Dew Point 63 °F    
Average Humidity 63    
Maximum Humidity 73    
Minimum Humidity 57    
Precipitation  
Precipitation 0.00 in - - ()
Sea Level Pressure  
Sea Level Pressure 29.98 in    
Wind  
Wind Speed 15 mph (SSE)    
Max Wind Speed 18 mph    
Max Gust Speed 24 mph    
Visibility 10 miles    
Events Thunderstorm    
Averages and records for this station are not official NWS values.
T = Trace of Precipitation, MM = Missing Value Source: NWS Daily Summary

Daily Weather History Graph

Daily Weather History Graph

Search for Another Location

Airport or City:

Trip Planner

Search our weather history database for the weather conditions in past years. The results will help you decide how hot, cold, wet, or windy it might be!

Date:

Astronomy

Jul. 13, 2013 Rise Set
Actual Time 5:53 AM CDT 9:02 PM CDT
Civil Twilight 5:18 AM CDT 9:37 PM CDT
Nautical Twilight 4:33 AM CDT 10:22 PM CDT
Astronomical Twilight 3:39 AM CDT 11:15 PM CDT
Moon 11:22 AM CDT (7/13) 11:31 PM CDT (7/13)
Length of Visible Light 16h 19m
Length of Day
15h 09m
Waxing Crescent, 26% of the Moon is Illuminated
Jul 13
Waxing Crescent
Jul 15
First Quarter
Jul 22
Full
Jul 29
Last Quarter
Aug 6
New

Hourly Weather History & Observations

Time (CDT) Temp. Heat Index Dew Point Humidity Pressure Visibility Wind Dir Wind Speed Gust Speed Precip Events Conditions
12:15 AM 75.2 °F - 60.8 °F 61% 29.96 in 10.0 mi South 16.1 mph 20.7 mph N/A   Scattered Clouds
12:35 AM 75.2 °F - 60.8 °F 61% 29.96 in 10.0 mi South 17.3 mph - N/A   Mostly Cloudy
12:55 AM 75.2 °F - 60.8 °F 61% 29.96 in 10.0 mi South 17.3 mph 23.0 mph N/A   Partly Cloudy
1:15 AM 75.2 °F - 60.8 °F 61% 29.96 in 10.0 mi South 18.4 mph 23.0 mph N/A   Clear
1:35 AM 75.2 °F - 59.0 °F 57% 29.96 in 10.0 mi South 17.3 mph 24.2 mph N/A   Clear
1:55 AM 75.2 °F - 59.0 °F 57% 29.96 in 10.0 mi South 17.3 mph - N/A   Partly Cloudy
2:15 AM 75.2 °F - 59.0 °F 57% 29.95 in 10.0 mi South 15.0 mph 23.0 mph N/A   Partly Cloudy
2:35 AM 75.2 °F - 59.0 °F 57% 29.95 in 10.0 mi South 15.0 mph 24.2 mph N/A   Clear
2:55 AM 73.4 °F - 59.0 °F 61% 29.96 in 10.0 mi South 17.3 mph 21.9 mph N/A   Clear
3:15 AM 73.4 °F - 59.0 °F 61% 29.96 in 10.0 mi South 13.8 mph 24.2 mph N/A   Scattered Clouds
3:35 AM 73.4 °F - 59.0 °F 61% 29.96 in 10.0 mi SSW 13.8 mph 21.9 mph N/A   Mostly Cloudy
3:55 AM 73.4 °F - 59.0 °F 61% 29.96 in 10.0 mi SSW 18.4 mph 24.2 mph N/A   Partly Cloudy
4:15 AM 73.4 °F - 59.0 °F 61% 29.94 in 10.0 mi SSW 16.1 mph 20.7 mph N/A   Clear
4:35 AM 73.4 °F - 60.8 °F 65% 29.94 in 10.0 mi SSW 17.3 mph 21.9 mph N/A   Clear
4:55 AM 73.4 °F - 59.0 °F 61% 29.95 in 10.0 mi SSW 16.1 mph 21.9 mph N/A   Partly Cloudy
5:15 AM 71.6 °F - 60.8 °F 69% 29.94 in 10.0 mi SSW 13.8 mph - N/A   Partly Cloudy
5:35 AM 71.6 °F - 59.0 °F 64% 29.94 in 10.0 mi South 15.0 mph 21.9 mph N/A   Partly Cloudy
5:55 AM 71.6 °F - 59.0 °F 64% 29.95 in 10.0 mi South 16.1 mph - N/A   Scattered Clouds
6:15 AM 71.6 °F - 60.8 °F 69% 29.95 in 10.0 mi South 15.0 mph 20.7 mph N/A   Mostly Cloudy
6:35 AM 71.6 °F - 60.8 °F 69% 29.94 in 10.0 mi South 13.8 mph - N/A   Scattered Clouds
6:55 AM 71.6 °F - 60.8 °F 69% 29.94 in 10.0 mi South 15.0 mph 19.6 mph N/A   Clear
7:15 AM 71.6 °F - 60.8 °F 69% 29.94 in 10.0 mi South 16.1 mph 21.9 mph N/A   Clear
7:35 AM 71.6 °F - 60.8 °F 69% 29.94 in 10.0 mi SSW 18.4 mph - N/A   Clear
7:55 AM 71.6 °F - 60.8 °F 69% 29.96 in 10.0 mi South 16.1 mph 20.7 mph N/A   Clear
8:15 AM 73.4 °F - 60.8 °F 65% 29.96 in 10.0 mi South 12.7 mph 21.9 mph N/A   Clear
8:35 AM 73.4 °F - 60.8 °F 65% 29.97 in 10.0 mi South 12.7 mph 21.9 mph N/A   Scattered Clouds
8:55 AM 73.4 °F - 60.8 °F 65% 29.98 in 10.0 mi South 9.2 mph - N/A   Partly Cloudy
9:15 AM 75.2 °F - 60.8 °F 61% 29.98 in 10.0 mi South 11.5 mph 17.3 mph N/A   Clear
9:35 AM 73.4 °F - 60.8 °F 65% 30.00 in 10.0 mi South 11.5 mph 16.1 mph N/A   Scattered Clouds
9:55 AM 73.4 °F - 60.8 °F 65% 30.00 in 10.0 mi SSE 10.4 mph - N/A Thunderstorm Scattered Clouds
10:15 AM 73.4 °F - 62.6 °F 69% 30.00 in 10.0 mi SE 9.2 mph 16.1 mph N/A   Partly Cloudy
10:35 AM 71.6 °F - 62.6 °F 73% 30.01 in 10.0 mi ESE 8.1 mph - N/A Thunderstorm Scattered Clouds
10:55 AM 71.6 °F - 62.6 °F 73% 30.01 in 10.0 mi ESE 11.5 mph - N/A   Partly Cloudy
11:15 AM 73.4 °F - 62.6 °F 69% 30.01 in 10.0 mi ESE 13.8 mph - N/A   Partly Cloudy
11:35 AM 73.4 °F - 62.6 °F 69% 30.00 in 10.0 mi ESE 15.0 mph - N/A   Partly Cloudy
11:55 AM 73.4 °F - 62.6 °F 69% 30.00 in 10.0 mi ESE 15.0 mph - N/A   Clear
12:15 PM 75.2 °F - 62.6 °F 65% 30.00 in 10.0 mi ESE 16.1 mph - N/A   Clear
12:35 PM 77.0 °F - 64.4 °F 65% 30.00 in 10.0 mi ESE 17.3 mph - N/A   Clear
12:55 PM 77.0 °F - 64.4 °F 65% 30.01 in 10.0 mi ESE 16.1 mph - N/A   Clear
1:15 PM 78.8 °F - 64.4 °F 61% 30.01 in 10.0 mi ESE 17.3 mph - N/A   Clear
1:35 PM 78.8 °F - 64.4 °F 61% 30.00 in 10.0 mi ESE 13.8 mph 21.9 mph N/A   Clear
1:55 PM 80.6 °F 82.7 °F 66.2 °F 61% 29.99 in 10.0 mi SE 16.1 mph 20.7 mph N/A   Clear
2:15 PM 78.8 °F - 64.4 °F 61% 29.99 in 10.0 mi SE 17.3 mph - N/A   Clear
2:35 PM 80.6 °F 82.3 °F 64.4 °F 58% 29.99 in 10.0 mi SE 18.4 mph 23.0 mph N/A   Clear
2:55 PM 80.6 °F 82.3 °F 64.4 °F 58% 29.98 in 10.0 mi SE 18.4 mph 23.0 mph N/A   Clear
3:15 PM 78.8 °F - 64.4 °F 61% 29.98 in 10.0 mi SE 16.1 mph - N/A   Clear
3:35 PM 80.6 °F 82.3 °F 64.4 °F 58% 29.98 in 10.0 mi SE 17.3 mph 21.9 mph N/A   Clear
3:55 PM 80.6 °F 82.3 °F 64.4 °F 58% 29.98 in 10.0 mi SE 13.8 mph 19.6 mph N/A   Clear
4:15 PM 82.4 °F 84.6 °F 66.2 °F 58% 29.97 in 10.0 mi SSE 12.7 mph 20.7 mph N/A   Clear
4:35 PM 82.4 °F 84.6 °F 66.2 °F 58% 29.97 in 10.0 mi SSE 15.0 mph 20.7 mph N/A   Clear
4:55 PM 82.4 °F 84.6 °F 66.2 °F 58% 29.97 in 10.0 mi SSE 13.8 mph 20.7 mph N/A   Clear
5:15 PM 82.4 °F 84.6 °F 66.2 °F 58% 29.97 in 10.0 mi SSE 13.8 mph 19.6 mph N/A   Clear
5:35 PM 80.6 °F 82.7 °F 66.2 °F 61% 29.97 in 10.0 mi SSE 13.8 mph 18.4 mph N/A   Clear
5:55 PM 80.6 °F 82.7 °F 66.2 °F 61% 29.98 in 10.0 mi SE 13.8 mph 18.4 mph N/A   Clear
6:15 PM 80.6 °F 82.7 °F 66.2 °F 61% 29.98 in 10.0 mi SSE 10.4 mph - N/A   Clear
6:35 PM 80.6 °F 82.7 °F 66.2 °F 61% 29.98 in 10.0 mi SE 12.7 mph - N/A   Clear
6:55 PM 80.6 °F 82.7 °F 66.2 °F 61% 29.97 in 10.0 mi SE 15.0 mph 20.7 mph N/A   Clear
7:15 PM 80.6 °F 82.7 °F 66.2 °F 61% 29.97 in 10.0 mi SE 12.7 mph - N/A   Clear
7:35 PM 80.6 °F 82.3 °F 64.4 °F 58% 29.98 in 10.0 mi SSE 12.7 mph 18.4 mph N/A   Clear
7:55 PM 78.8 °F - 64.4 °F 61% 29.98 in 10.0 mi SE 9.2 mph - N/A   Clear
8:15 PM 78.8 °F - 66.2 °F 65% 29.98 in 10.0 mi SE 11.5 mph - N/A   Clear
8:35 PM 78.8 °F - 64.4 °F 61% 29.98 in 10.0 mi SE 12.7 mph - N/A   Clear
8:55 PM 78.8 °F - 64.4 °F 61% 29.98 in 10.0 mi SE 12.7 mph - N/A   Clear
9:15 PM 77.0 °F - 64.4 °F 65% 29.98 in 10.0 mi SE 12.7 mph 17.3 mph N/A   Clear
9:35 PM 77.0 °F - 64.4 °F 65% 29.99 in 10.0 mi SE 11.5 mph - N/A   Clear
9:55 PM 75.2 °F - 64.4 °F 69% 30.00 in 10.0 mi SE 11.5 mph - N/A   Clear
10:15 PM 75.2 °F - 64.4 °F 69% 30.00 in 10.0 mi SE 15.0 mph 18.4 mph N/A   Clear
10:35 PM 75.2 °F - 64.4 °F 69% 30.02 in 10.0 mi SE 10.4 mph - N/A   Clear
10:55 PM 73.4 °F - 62.6 °F 69% 30.03 in 10.0 mi SSE 10.4 mph - N/A   Clear
11:15 PM 73.4 °F - 62.6 °F 69% 30.04 in 10.0 mi SSE 11.5 mph 20.7 mph N/A   Clear
11:35 PM 73.4 °F - 62.6 °F 69% 30.04 in 10.0 mi SSE 10.4 mph - N/A   Clear
11:55 PM 73.4 °F - 62.6 °F 69% 30.05 in 10.0 mi SSE 12.7 mph 17.3 mph N/A   Clear